Paynesville, MN

12:35 PM CDT on June 22, 2017 (GMT -0500)
Paynesville

Weather History for KPEX - November, 2011

Change the Weather History Date:

Sunday, November 27, 2011

  Actual Average (KLJF) Record (KLJF)
Temperature  
Mean Temperature 30 °F -  
Max Temperature 32 °F 31 °F 57 °F (1998)
Min Temperature 28 °F 14 °F -13 °F (1985)
Degree Days  
Heating Degree Days 35    
Moisture  
Dew Point 24 °F    
Average Humidity 75    
Maximum Humidity 80    
Minimum Humidity 70    
Precipitation  
Precipitation 0.00 in - - ()
Sea Level Pressure  
Sea Level Pressure 30.18 in    
Wind  
Wind Speed 11 mph (NNW)    
Max Wind Speed 17 mph    
Max Gust Speed 26 mph    
Visibility 10 miles    
Events      
Averages and records for this station are not official NWS values.
T = Trace of Precipitation, MM = Missing Value Source: NWS Daily Summary

Daily Weather History Graph

Daily Weather History Graph

Search for Another Location

Airport or City:

Trip Planner

Search our weather history database for the weather conditions in past years. The results will help you decide how hot, cold, wet, or windy it might be!

Date:

Astronomy

Nov. 27, 2011 Rise Set
Actual Time 7:33 AM CST 4:39 PM CST
Civil Twilight 7:00 AM CST 5:12 PM CST
Nautical Twilight 6:23 AM CST 5:49 PM CST
Astronomical Twilight 5:48 AM CST 6:24 PM CST
Moon 10:00 AM CST (11/27) 7:18 PM CST (11/27)
Length of Visible Light 10h 12m
Length of Day
9h 06m
Waxing Crescent, 8% of the Moon is Illuminated
Nov 27
Waxing Crescent
Dec 2
First Quarter
Dec 10
Full
Dec 17
Last Quarter
Dec 24
New

Hourly Weather History & Observations

Time (CST) Temp. Windchill Dew Point Humidity Pressure Visibility Wind Dir Wind Speed Gust Speed Precip Events Conditions
12:12 AM 32.0 °F 20.8 °F 24.8 °F 75% 30.13 in 10.0 mi NW 17.3 mph 23.0 mph N/A   Overcast
12:32 AM 32.0 °F 21.2 °F 25.2 °F 76% 30.13 in 10.0 mi NW 16.1 mph 23.0 mph N/A   Overcast
12:51 AM 32.0 °F 22.1 °F 25.3 °F 76% 30.14 in 10.0 mi NW 13.8 mph 20.7 mph N/A   Overcast
1:12 AM 32.2 °F 21.4 °F 25.3 °F 76% 30.14 in 10.0 mi NW 16.1 mph 23.0 mph N/A   Overcast
1:32 AM 32.2 °F 22.7 °F 25.5 °F 76% 30.14 in 10.0 mi NW 12.7 mph 21.9 mph N/A   Overcast
1:52 AM 32.0 °F 20.8 °F 25.5 °F 77% 30.14 in 10.0 mi NW 17.3 mph 26.5 mph N/A   Overcast
2:12 AM 32.0 °F 21.6 °F 25.7 °F 78% 30.15 in 10.0 mi NW 15.0 mph 20.7 mph N/A   Overcast
2:32 AM 32.0 °F 22.5 °F 25.7 °F 78% 30.16 in 10.0 mi NNW 12.7 mph 21.9 mph N/A   Overcast
2:52 AM 32.0 °F 22.1 °F 25.7 °F 78% 30.15 in 10.0 mi NNW 13.8 mph 20.7 mph N/A   Overcast
3:12 AM 32.0 °F 22.1 °F 26.1 °F 79% 30.16 in 10.0 mi NW 13.8 mph 18.4 mph N/A   Overcast
3:32 AM 32.0 °F 22.1 °F 25.7 °F 78% 30.16 in 10.0 mi NNW 13.8 mph 19.6 mph N/A   Overcast
3:52 AM 32.0 °F 22.1 °F 25.5 °F 77% 30.15 in 10.0 mi NW 13.8 mph 20.7 mph N/A   Overcast
4:12 AM 32.0 °F 22.1 °F 25.2 °F 76% 30.16 in 10.0 mi NNW 13.8 mph - N/A   Overcast
4:32 AM 32.0 °F 23.0 °F 23.9 °F 72% 30.16 in 10.0 mi NNW 11.5 mph - N/A   Overcast
4:52 AM 31.8 °F 21.0 °F 24.8 °F 75% 30.17 in 10.0 mi NNW 16.1 mph 20.7 mph N/A   Overcast
5:12 AM 31.8 °F 21.0 °F 23.9 °F 73% 30.17 in 10.0 mi NNW 16.1 mph 21.9 mph N/A   Overcast
5:32 AM 31.6 °F 22.1 °F 23.0 °F 70% 30.17 in 10.0 mi NNW 12.7 mph 19.6 mph N/A   Overcast
5:52 AM 31.5 °F 22.9 °F 23.7 °F 73% 30.17 in 10.0 mi NNW 10.4 mph 16.1 mph N/A   Overcast
6:11 AM 31.3 °F 23.9 °F 24.3 °F 75% 30.18 in 10.0 mi NNW 8.1 mph - N/A   Overcast
6:32 AM 31.1 °F 20.9 °F 22.8 °F 71% 30.19 in 10.0 mi NNW 13.8 mph 24.2 mph N/A   Overcast
7:11 AM 30.9 °F 21.2 °F 23.0 °F 72% 30.21 in 10.0 mi North 12.7 mph 19.6 mph N/A   Overcast
7:32 AM 30.2 °F 21.3 °F 22.1 °F 72% 30.21 in 10.0 mi NNW 10.4 mph - N/A   Overcast
7:52 AM 30.2 °F 19.3 °F 22.5 °F 73% 30.21 in 10.0 mi NNW 15.0 mph 19.6 mph N/A   Overcast
8:12 AM 30.0 °F 20.0 °F 22.8 °F 75% 30.21 in 10.0 mi NNW 12.7 mph 18.4 mph N/A   Overcast
8:31 AM 30.0 °F 20.5 °F 22.8 °F 75% 30.21 in 10.0 mi NNW 11.5 mph 17.3 mph N/A   Overcast
9:11 AM 30.0 °F 20.0 °F 23.4 °F 76% 30.22 in 10.0 mi NNW 12.7 mph 17.3 mph N/A   Overcast
9:32 AM 30.2 °F 21.3 °F 23.4 °F 76% 30.22 in 10.0 mi NNW 10.4 mph 17.3 mph N/A   Overcast
9:52 AM 30.2 °F 21.9 °F 23.5 °F 76% 30.23 in 10.0 mi NNW 9.2 mph - N/A   Overcast
10:12 AM 30.2 °F 21.9 °F 23.5 °F 76% 30.24 in 10.0 mi North 9.2 mph - N/A   Overcast
10:52 AM 30.2 °F 21.3 °F 22.6 °F 73% 30.22 in 10.0 mi North 10.4 mph 16.1 mph N/A   Overcast
11:12 AM 30.6 °F 21.8 °F 22.3 °F 71% 30.21 in 10.0 mi North 10.4 mph 18.4 mph N/A   Overcast
11:52 AM 31.1 °F 21.4 °F 22.5 °F 70% 30.21 in 10.0 mi NNW 12.7 mph 18.4 mph N/A   Overcast
12:12 PM 31.1 °F 22.4 °F 22.8 °F 71% 30.20 in 10.0 mi NW 10.4 mph 16.1 mph N/A   Overcast
12:32 PM 31.3 °F 23.3 °F 22.8 °F 71% 30.20 in 10.0 mi North 9.2 mph - N/A   Overcast
12:52 PM 31.5 °F 22.9 °F 23.4 °F 72% 30.20 in 10.0 mi NW 10.4 mph - N/A   Overcast
1:12 PM 31.1 °F 24.5 °F 23.4 °F 73% 30.20 in 10.0 mi North 6.9 mph - N/A   Overcast
1:31 PM 31.1 °F 24.5 °F 22.5 °F 70% 30.20 in 10.0 mi North 6.9 mph - N/A   Overcast
1:52 PM 31.1 °F 24.5 °F 22.8 °F 71% 30.20 in 10.0 mi NW 6.9 mph - N/A   Overcast
2:12 PM 31.1 °F 24.5 °F 22.8 °F 71% 30.19 in 10.0 mi North 6.9 mph - N/A   Overcast
2:32 PM 31.5 °F 24.2 °F 23.5 °F 73% 30.18 in 10.0 mi NW 8.1 mph - N/A   Overcast
2:52 PM 31.3 °F 26.6 °F 23.5 °F 73% 30.18 in 10.0 mi NNW 4.6 mph - N/A   Overcast
3:12 PM 31.1 °F 27.7 °F 23.2 °F 72% 30.18 in 10.0 mi NW 3.5 mph - N/A   Overcast
3:32 PM 30.9 °F - 23.0 °F 72% 30.18 in 10.0 mi Calm Calm - N/A   Overcast
3:52 PM 31.1 °F 26.4 °F 23.4 °F 73% 30.18 in 10.0 mi WNW 4.6 mph - N/A   Overcast
4:12 PM 30.6 °F 27.1 °F 22.8 °F 73% 30.18 in 10.0 mi WNW 3.5 mph - N/A   Overcast
4:32 PM 30.4 °F - 23.4 °F 75% 30.19 in 10.0 mi Calm Calm - N/A   Overcast
4:52 PM 30.2 °F 24.3 °F 23.5 °F 76% 30.19 in 10.0 mi NW 5.8 mph - N/A   Overcast
5:12 PM 30.0 °F 26.5 °F 23.2 °F 76% 30.19 in 10.0 mi WNW 3.5 mph - N/A   Overcast
5:32 PM 30.0 °F - 23.5 °F 77% 30.18 in 10.0 mi Calm Calm - N/A   Overcast
5:52 PM 29.8 °F - 23.5 °F 77% 30.19 in 10.0 mi Calm Calm - N/A   Overcast
6:12 PM 29.7 °F 24.7 °F 23.7 °F 79% 30.20 in 10.0 mi West 4.6 mph - N/A   Overcast
6:32 PM 29.3 °F - 23.5 °F 79% 30.19 in 10.0 mi Calm Calm - N/A   Overcast
6:52 PM 29.3 °F - 23.0 °F 77% 30.19 in 10.0 mi Calm Calm - N/A   Overcast
7:12 PM 29.1 °F - 23.2 °F 78% 30.19 in 10.0 mi Calm Calm - N/A   Overcast
7:32 PM 29.1 °F - 23.0 °F 78% 30.18 in 10.0 mi Calm Calm - N/A   Overcast
7:52 PM 28.9 °F - 22.8 °F 78% 30.17 in 10.0 mi Calm Calm - N/A   Overcast
8:12 PM 28.9 °F - 23.0 °F 78% 30.16 in 10.0 mi Calm Calm - N/A   Overcast
8:32 PM 28.8 °F 25.0 °F 23.0 °F 79% 30.16 in 10.0 mi WSW 3.5 mph - N/A   Overcast
8:52 PM 28.4 °F - 22.8 °F 80% 30.16 in 10.0 mi Calm Calm - N/A   Overcast
9:12 PM 28.0 °F 24.2 °F 22.8 °F 81% 30.15 in 10.0 mi SSE 3.5 mph - N/A   Overcast
9:32 PM 27.5 °F 23.6 °F 22.3 °F 81% 30.15 in 10.0 mi SSE 3.5 mph - N/A   Mostly Cloudy
9:52 PM 26.8 °F - 22.1 °F 83% 30.15 in 10.0 mi Calm Calm - N/A   Clear
10:12 PM 26.6 °F - 22.1 °F 83% 30.15 in 10.0 mi Calm Calm - N/A   Clear
10:32 PM 24.6 °F 20.3 °F 21.0 °F 86% 30.13 in 10.0 mi SSE 3.5 mph - N/A   Clear
10:52 PM 25.9 °F - 22.1 °F 86% 30.14 in 10.0 mi Calm Calm - N/A   Clear
11:12 PM 24.8 °F 20.5 °F 21.2 °F 86% 30.13 in 10.0 mi South 3.5 mph - N/A   Clear
11:31 PM 25.0 °F 19.3 °F 21.6 °F 87% 30.13 in 10.0 mi South 4.6 mph - N/A   Clear
11:52 PM 25.2 °F 18.3 °F 21.7 °F 87% 30.11 in 10.0 mi SSE 5.8 mph - N/A   Clear